Weather reports worldwide

Advertisment
Apt, France (7657): temperature & dewpoint: 11.07.2018 15:00:00 - 17.07.2018 15:00:00 (CEST)Apt, France (7657): wind speed & gusts: 11.07.2018 15:00:00 - 17.07.2018 15:00:00 (CEST)Apt, France (7657): wind direction: 11.07.2018 15:00:00 - 17.07.2018 15:00:00 (CEST)Apt, France (7657): precipitation: 11.07.2018 15:00:00 - 17.07.2018 15:00:00 (CEST)
Date & Time tt [°C] td [°C] ff [km/h] ff [kn] fx [km/h] fx [kn] dd rr [mm]
17.07.2018 15:00:00 - - - - - - - -
17.07.2018 14:00:00 27,7 12,1 16 9 39 21 NNW -
17.07.2018 13:00:00 26,9 11,4 16 9 37 20 NNW 0,0
17.07.2018 12:00:00 25,5 12,0 24 13 44 24 NW 0,0
17.07.2018 11:00:00 24,4 12,0 22 12 41 22 NNW 0,0
17.07.2018 10:00:00 22,8 11,8 16 9 41 22 NNW 0,0
17.07.2018 09:00:00 20,7 11,3 22 12 41 22 NNW 0,0
17.07.2018 08:00:00 19,2 11,2 21 11 37 20 NNW -
17.07.2018 07:00:00 17,2 11,0 9 5 29 16 W 0,0
17.07.2018 06:00:00 16,8 10,4 9 5 24 13 NW 0,0
17.07.2018 05:00:00 17,1 10,2 18 10 44 24 NW 0,0
17.07.2018 04:00:00 17,8 10,7 24 13 42 23 NW 0,0
17.07.2018 03:00:00 17,5 10,8 15 8 35 19 NNW 0,0
17.07.2018 02:00:00 18,1 10,9 18 10 44 24 NNW -
17.07.2018 01:00:00 19,3 10,8 21 11 37 20 WNW 0,0
17.07.2018 00:00:00 19,1 10,9 15 8 31 17 WNW 0,0
16.07.2018 23:00:00 19,5 11,5 9 5 41 22 WNW 0,0
16.07.2018 22:00:00 19,6 13,3 15 8 28 15 WNW 0,0
16.07.2018 21:00:00 19,6 15,0 13 7 29 16 W 0,0
16.07.2018 20:00:00 20,9 15,0 15 8 29 16 WNW -
16.07.2018 19:00:00 22,2 13,3 11 6 24 13 NNW 0,0
16.07.2018 18:00:00 21,7 14,6 15 8 29 16 NNW 0,0
16.07.2018 17:00:00 22,0 13,1 11 6 18 10 NW 0,0
16.07.2018 16:00:00 20,3 13,3 8 4 39 21 WNW 0,0
16.07.2018 15:00:00 18,7 14,0 8 4 35 19 WNW 0,2
16.07.2018 14:00:00 18,8 14,1 15 8 26 14 SE -
16.07.2018 13:00:00 17,5 13,8 9 5 18 10 ESE 0,8
16.07.2018 12:00:00 18,1 15,5 4 2 18 10 NW 0,0
16.07.2018 11:00:00 17,0 15,5 4 2 37 20 SE 3,0
16.07.2018 10:00:00 19,0 14,5 11 6 18 10 SSW 1,0
16.07.2018 09:00:00 20,8 13,5 8 4 15 8 SE 0,0
16.07.2018 08:00:00 18,6 15,1 0 0 11 6 N -
16.07.2018 07:00:00 15,0 12,5 5 3 11 6 NNW 0,0
16.07.2018 06:00:00 13,0 11,6 4 2 8 4 WSW 0,0
16.07.2018 05:00:00 13,1 11,3 0 0 8 4 N 0,0
16.07.2018 04:00:00 15,5 12,4 5 3 16 9 W 0,0
16.07.2018 03:00:00 16,9 13,6 15 8 18 10 W 0,0
16.07.2018 02:00:00 15,7 13,2 8 4 16 9 W -
16.07.2018 01:00:00 16,1 13,4 11 6 15 8 W 0,0
16.07.2018 00:00:00 16,5 13,2 2 1 16 9 W 0,0
15.07.2018 23:00:00 19,1 13,5 8 4 16 9 WNW 0,0
15.07.2018 22:00:00 18,1 13,6 8 4 11 6 WSW 0,0
15.07.2018 21:00:00 22,9 13,9 8 4 18 10 WNW 0,0
15.07.2018 20:00:00 25,9 14,7 13 7 34 18 WSW -
15.07.2018 19:00:00 27,8 13,3 15 8 29 16 W 0,0
15.07.2018 18:00:00 28,5 12,8 15 8 26 14 WSW 0,0
15.07.2018 17:00:00 29,1 12,5 11 6 28 15 WSW 0,0
15.07.2018 16:00:00 28,9 11,9 11 6 31 17 WNW 0,0
15.07.2018 15:00:00 28,4 11,9 13 7 29 16 SW 0,0
15.07.2018 14:00:00 28,1 12,0 13 7 31 17 WNW -
15.07.2018 13:00:00 27,7 14,0 8 4 22 12 NW 0,0
15.07.2018 12:00:00 25,8 13,6 5 3 15 8 N 0,0
15.07.2018 11:00:00 24,6 15,8 4 2 9 5 N 0,0
15.07.2018 10:00:00 22,1 14,5 4 2 13 7 E 0,0
15.07.2018 09:00:00 17,0 15,2 8 4 34 18 WNW 0,0
15.07.2018 08:00:00 15,6 14,1 29 16 57 31 NW -
15.07.2018 07:00:00 16,2 15,4 29 16 59 32 W 0,2
15.07.2018 06:00:00 12,5 11,6 4 2 9 5 W 0,0
15.07.2018 05:00:00 12,0 10,7 0 0 5 3 N 0,0
15.07.2018 04:00:00 12,6 11,5 2 1 8 4 W 0,0
15.07.2018 03:00:00 12,8 11,4 2 1 9 5 W 0,0
15.07.2018 02:00:00 14,2 12,2 0 0 5 3 N -
15.07.2018 01:00:00 15,9 13,6 2 1 8 4 W 0,0
15.07.2018 00:00:00 17,4 14,9 2 1 9 5 SW 0,0
14.07.2018 23:00:00 20,1 15,9 5 3 16 9 W 0,0
14.07.2018 22:00:00 22,2 16,9 9 5 16 9 W 0,0
14.07.2018 21:00:00 24,9 13,1 9 5 22 12 WNW 0,0
14.07.2018 20:00:00 26,6 11,9 11 6 26 14 W -
14.07.2018 19:00:00 28,3 11,8 9 5 28 15 W 0,0
14.07.2018 18:00:00 29,1 11,6 11 6 24 13 W 0,0
14.07.2018 17:00:00 28,3 12,6 11 6 29 16 W 0,0
14.07.2018 16:00:00 29,0 12,8 13 7 26 14 W 0,0
14.07.2018 15:00:00 28,4 13,1 15 8 31 17 NW 0,0
14.07.2018 14:00:00 28,4 12,7 16 9 35 19 WNW -
14.07.2018 13:00:00 29,2 13,0 11 6 29 16 WSW 0,0
14.07.2018 12:00:00 28,1 12,4 5 3 21 11 ENE 0,0
14.07.2018 11:00:00 25,8 13,3 5 3 13 7 SE 0,0
14.07.2018 10:00:00 23,7 14,7 2 1 9 5 SSW 0,0
14.07.2018 09:00:00 21,4 14,8 4 2 11 6 SSW 0,0
14.07.2018 08:00:00 21,9 13,3 0 0 11 6 N -
14.07.2018 07:00:00 17,2 11,9 5 3 18 10 S 0,0
14.07.2018 06:00:00 15,5 11,1 8 4 15 8 WNW 0,0
14.07.2018 05:00:00 13,3 11,4 2 1 5 3 ENE 0,0
14.07.2018 04:00:00 12,6 10,5 2 1 8 4 WNW 0,0
14.07.2018 03:00:00 13,1 10,5 4 2 8 4 WSW 0,0
14.07.2018 02:00:00 14,4 10,8 4 2 8 4 W -
14.07.2018 01:00:00 14,5 10,7 2 1 11 6 WSW 0,0
14.07.2018 00:00:00 15,9 11,1 2 1 8 4 WNW 0,0
13.07.2018 23:00:00 17,5 11,5 4 2 15 8 W 0,0
13.07.2018 22:00:00 21,2 12,1 13 7 18 10 W 0,0
13.07.2018 21:00:00 23,6 12,3 8 4 18 10 WNW 0,0
13.07.2018 20:00:00 27,2 10,8 13 7 24 13 NW -
13.07.2018 19:00:00 28,4 11,0 11 6 34 18 W 0,0
13.07.2018 18:00:00 29,1 9,8 15 8 31 17 W 0,0
13.07.2018 17:00:00 29,8 8,8 18 10 39 21 W 0,0
13.07.2018 16:00:00 29,9 8,9 16 9 41 22 W 0,0
13.07.2018 15:00:00 29,3 8,9 18 10 34 18 WSW 0,0
13.07.2018 14:00:00 28,4 9,6 11 6 42 23 WSW -
13.07.2018 13:00:00 28,0 10,2 15 8 29 16 W 0,0
13.07.2018 12:00:00 27,2 9,1 5 3 18 10 N 0,0
13.07.2018 11:00:00 26,3 8,7 8 4 18 10 NNE 0,0
13.07.2018 10:00:00 25,5 8,5 8 4 16 9 N 0,0
13.07.2018 09:00:00 23,3 7,4 4 2 9 5 N 0,0
13.07.2018 08:00:00 17,2 8,9 0 0 4 2 N -
13.07.2018 07:00:00 10,8 7,5 0 0 4 2 N 0,0
13.07.2018 06:00:00 8,4 6,0 0 0 5 3 N 0,0
13.07.2018 05:00:00 8,4 5,9 4 2 5 3 W 0,0
13.07.2018 04:00:00 9,1 5,8 0 0 4 2 N 0,0
13.07.2018 03:00:00 9,7 6,4 0 0 8 4 N 0,0
13.07.2018 02:00:00 10,5 6,8 4 2 9 5 ENE -
13.07.2018 01:00:00 11,7 6,6 5 3 15 8 N 0,0
13.07.2018 00:00:00 13,1 6,4 2 1 15 8 WSW 0,0
12.07.2018 23:00:00 15,0 6,8 5 3 9 5 W 0,0
12.07.2018 22:00:00 17,3 7,6 2 1 21 11 NE 0,0
12.07.2018 21:00:00 20,7 6,6 9 5 21 11 WNW 0,0
12.07.2018 20:00:00 23,9 6,2 11 6 26 14 W -
12.07.2018 19:00:00 25,2 7,3 15 8 26 14 W 0,0
12.07.2018 18:00:00 26,1 3,9 8 4 22 12 WNW 0,0
12.07.2018 17:00:00 25,5 10,9 9 5 28 15 W 0,0
12.07.2018 16:00:00 24,3 11,3 13 7 24 13 WNW 0,0
12.07.2018 15:00:00 23,3 11,0 15 8 29 16 W 0,0
12.07.2018 14:00:00 24,4 12,7 16 9 34 18 SW -
12.07.2018 13:00:00 23,7 13,0 5 3 22 12 S 0,0
12.07.2018 12:00:00 24,0 13,8 8 4 22 12 SE 0,0
12.07.2018 11:00:00 22,2 13,3 5 3 18 10 SE 0,0
12.07.2018 10:00:00 20,8 12,5 8 4 18 10 SSE 0,0
12.07.2018 09:00:00 19,3 14,1 9 5 18 10 SE 0,0
12.07.2018 08:00:00 15,9 11,1 2 1 4 2 ENE -
12.07.2018 07:00:00 8,9 7,5 0 0 5 3 N 0,0
12.07.2018 06:00:00 6,2 5,2 0 0 8 4 N 0,0
12.07.2018 05:00:00 6,8 5,4 0 0 5 3 N 0,0
12.07.2018 04:00:00 7,9 6,4 0 0 5 3 N 0,0
12.07.2018 03:00:00 9,4 8,2 2 1 5 3 S 0,0
12.07.2018 02:00:00 10,2 8,0 0 0 9 5 N -
12.07.2018 01:00:00 13,4 9,4 9 5 15 8 W 0,0
12.07.2018 00:00:00 15,4 10,0 11 6 18 10 WNW 0,0
11.07.2018 23:00:00 15,3 9,9 11 6 16 9 WNW 0,0
11.07.2018 22:00:00 16,6 10,0 9 5 18 10 NW 0,0
11.07.2018 21:00:00 19,8 9,9 11 6 24 13 NW 0,0
11.07.2018 20:00:00 22,1 9,9 13 7 31 17 WNW -
11.07.2018 19:00:00 23,1 9,5 16 9 34 18 W 0,0
11.07.2018 18:00:00 24,3 9,8 16 9 34 18 W 0,0
11.07.2018 17:00:00 24,9 10,7 16 9 34 18 W 0,0
11.07.2018 16:00:00 25,1 10,9 15 8 29 16 W 0,0
11.07.2018 15:00:00 25,1 10,5 15 8 35 19 WNW 0,0

tt = temperature
td = dewpoint
ff = wind speed
fx = gusts
dd = wind direction
rr = precipitation

Next stations